EW1948 Weather Reports


Display with metric or nautical units.
time (UTC)temp
F
wind
direction
speed
MPH
gust
MPH
rain 1hr
in
rain 24hr
in
rain mn
in
humidity
%
barometer
mb
20260504220516 78 180 4.0 7.0 0.00 0.31 0.31 55 1003.7
20260504215516 78 180 4.0 6.0 0.00 0.31 0.31 54 1003.7
20260504214536 77 180 3.0 8.0 0.00 0.31 0.31 58 1003.7
20260504213516 76 225 3.0 9.0 0.00 0.31 0.31 63 1003.8
20260504212539 75 180 2.0 6.0 0.00 0.31 0.31 65 1003.8
20260504211516 74 180 2.0 6.0 0.00 0.31 0.31 67 1004.0
20260504210516 73 180 2.0 7.0 0.00 0.31 0.31 68 1004.2
20260504205516 73 225 3.0 7.0 0.00 0.31 0.31 67 1004.2
20260504204516 73 158 4.0 8.0 0.00 0.31 0.31 68 1004.4
20260504203516 71 113 3.0 10.0 0.01 0.31 0.31 72 1004.5
20260504202516 69 135 3.0 7.0 0.01 0.31 0.31 77 1004.4
20260504201516 67 158 4.0 8.0 0.03 0.31 0.31 80 1004.5
20260504200516 65 338 2.0 8.0 0.11 0.31 0.31 85 1004.8
20260504195516 65 270 2.0 5.0 0.26 0.31 0.31 85 1004.4
20260504194515 64 158 5.0 9.0 0.31 0.31 0.31 87 1004.6
20260504193516 63 180 3.0 8.0 0.30 0.30 0.30 87 1004.9
20260504192516 62 68 2.0 3.0 0.30 0.30 0.30 87 1004.8
20260504191516 63 68 2.0 4.0 0.28 0.28 0.28 86 1005.6
20260504190516 64 68 1.0 3.0 0.20 0.20 0.20 83 1006.6
20260504185636 67 0 2.0 4.0 0.05 0.05 0.05 76 1006.2
20260504184515 70 338 3.0 5.0 0.00 0.00 0.00 65 1006.2
20260504183515 72 113 1.0 3.0 0.00 0.00 0.00 59 1006.4
20260504182516 72 135 2.0 4.0 0.00 0.00 0.00 57 1006.5
20260504181515 72 135 2.0 8.0 0.00 0.00 0.00 58 1006.4
20260504180515 71 135 4.0 10.0 0.00 0.00 0.00 60 1005.9
20260504175518 70 158 2.0 9.0 0.00 0.00 0.00 62 1006.0
20260504174518 69 135 3.0 6.0 0.00 0.00 0.00 63 1006.2
20260504173517 68 158 3.0 7.0 0.00 0.00 0.00 63 1006.4
20260504172518 68 158 4.0 9.0 0.00 0.00 0.00 63 1006.3
20260504171518 67 135 4.0 9.0 0.00 0.00 0.00 64 1006.2
20260504170518 67 135 3.0 7.0 0.00 0.00 0.00 64 1006.9
20260504150517 69 180 3.0 5.0 0.00 0.00 0.00 60 1008.9
20260504140517 66 180 4.0 8.0 0.00 0.00 0.00 65 1008.5
20260504130517 63 135 3.0 6.0 0.00 0.00 0.00 73 1009.3
20260504110517 54 0.0 0.0 0.00 0.00 0.00 86 1009.5
20260504100517 55 0.0 0.0 0.00 0.00 0.00 83 1009.1
20260504081516 57 0.0 1.0 0.00 0.00 0.00 77 1009.2
20260504080516 58 0.0 2.0 0.00 0.00 0.00 76 1009.2
20260504050516 64 158 1.0 4.0 0.00 0.00 0.00 59 1009.0
20260504045517 64 180 2.0 5.0 0.00 0.00 0.00 59 1009.2
20260504044517 65 180 2.0 3.0 0.00 0.00 0.00 58 1009.5
20260504043517 65 203 2.0 5.0 0.00 0.00 0.00 57 1009.8
20260504042537 66 180 2.0 4.0 0.00 0.00 0.00 56 1010.1
20260504041537 66 203 2.0 6.0 0.00 0.00 0.00 55 1010.3
20260504040517 66 135 2.0 5.0 0.00 0.00 0.00 54 1010.3
20260504035517 66 113 3.0 6.0 0.00 0.00 0.00 54 1010.5
20260504034517 66 158 2.0 6.0 0.00 0.00 0.00 54 1010.5
20260504033517 66 158 2.0 4.0 0.00 0.00 0.00 54 1010.7
20260504032517 66 225 1.0 4.0 0.00 0.00 0.00 54 1010.6
20260504031517 66 135 2.0 5.0 0.00 0.00 0.00 53 1010.6
20260504030516 66 203 2.0 4.0 0.00 0.00 0.00 53 1010.4
20260504025537 66 158 1.0 3.0 0.00 0.00 0.00 54 1010.3
20260504024516 66 158 1.0 3.0 0.00 0.00 0.00 53 1010.3
20260504023516 66 180 2.0 5.0 0.00 0.00 0.00 53 1010.4
20260504022516 66 0.0 0.0 0.00 0.00 0.00 54 1010.3
20260504021518 66 0.0 2.0 0.00 0.00 0.00 53 1010.2
20260504020516 67 0.0 1.0 0.00 0.00 0.00 52 1010.1
20260504015537 67 0.0 3.0 0.00 0.00 0.00 51 1010.1
20260504014516 68 0.0 0.0 0.00 0.00 0.00 51 1009.9
20260504013516 69 158 1.0 3.0 0.00 0.00 0.00 49 1009.9
20260504012517 70 180 1.0 3.0 0.00 0.00 0.00 47 1009.8
20260504011517 71 180 1.0 2.0 0.00 0.00 0.00 45 1009.9
20260504010516 72 180 1.0 3.0 0.00 0.00 0.00 43 1009.8
20260504005517 73 135 2.0 3.0 0.00 0.00 0.00 41 1009.8
20260504004516 73 180 2.0 7.0 0.00 0.00 0.00 41 1009.8
20260504003516 74 203 3.0 7.0 0.00 0.00 0.00 40 1009.8
20260504002516 74 180 3.0 8.0 0.00 0.00 0.00 39 1009.8
20260504001516 75 180 4.0 8.0 0.00 0.00 0.00 39 1009.8
20260504000516 75 180 3.0 7.0 0.00 0.00 0.00 38 1009.8
20260503235516 76 180 2.0 10.0 0.00 0.00 0.00 37 1010.0
20260503234556 76 203 3.0 7.0 0.00 0.00 0.00 36 1010.0
20260503233516 76 180 4.0 9.0 0.00 0.00 0.00 35 1010.0
20260503232516 76 203 5.0 9.0 0.00 0.00 0.00 35 1010.1
20260503231516 77 180 5.0 15.0 0.00 0.00 0.00 34 1010.1
20260503230516 77 180 5.0 14.0 0.00 0.00 0.00 33 1010.2
20260503225516 77 180 4.0 7.0 0.00 0.00 0.00 33 1010.3
20260503224516 77 180 4.0 10.0 0.00 0.00 0.00 33 1010.3
20260503223518 77 203 5.0 11.0 0.00 0.00 0.00 32 1010.5
20260503222518 77 180 5.0 11.0 0.00 0.00 0.00 32 1010.5
20260503221517 77 203 5.0 13.0 0.00 0.00 0.00 33 1010.6